This is the latest recevied weather packets stored in our database for station/object SA3ARQ-13. If no packets are shown the sender has not sent any weather packets the latest 1 day(s).
| Time | Temp. | Humidity | Pressure | Rain* | Wind** | Luminosity | Snow |
|---|---|---|---|---|---|---|---|
| 1778047651 | 10.56° C | 41% | 1012.4 hPa | - | - | - | - |
| 1778046751 | 9.44° C | 42% | 1012.4 hPa | - | - | - | - |
| 1778044951 | 8.33° C | 43% | 1012.1 hPa | - | - | - | - |
| 1778043156 | 7.22° C | 46% | 1012.1 hPa | - | - | - | - |
| 1778040450 | 5.56° C | 47% | 1011.9 hPa | - | - | - | - |
| 1778039555 | 5° C | 49% | 1011.7 hPa | - | - | - | - |
| 1778038655 | 5° C | 49% | 1011.6 hPa | - | - | - | - |
| 1778036849 | 5.56° C | 48% | 1011.4 hPa | - | - | - | - |
| 1778035949 | 5.56° C | 49% | 1011.3 hPa | - | - | - | - |
| 1778035050 | 5.56° C | 48% | 1011.2 hPa | - | - | - | - |
| 1778034149 | 6.11° C | 48% | 1011.2 hPa | - | - | - | - |
| 1778033249 | 6.11° C | 48% | 1011 hPa | - | - | - | - |
| 1778032349 | 6.11° C | 48% | 1010.8 hPa | - | - | - | - |
| 1778031449 | 6.67° C | 48% | 1010.8 hPa | - | - | - | - |
| 1778030549 | 6.67° C | 47% | 1010.7 hPa | - | - | - | - |
| 1778029649 | 6.67° C | 47% | 1010.5 hPa | - | - | - | - |
| 1778028749 | 7.22° C | 47% | 1010.3 hPa | - | - | - | - |
| 1778027849 | 7.22° C | 47% | 1010.1 hPa | - | - | - | - |
| 1778026949 | 7.22° C | 46% | 1009.9 hPa | - | - | - | - |
| 1778026049 | 7.78° C | 46% | 1009.8 hPa | - | - | - | - |
| 1778025149 | 7.78° C | 46% | 1009.7 hPa | - | - | - | - |
| 1778024249 | 7.78° C | 46% | 1009.7 hPa | - | - | - | - |
| 1778023349 | 8.33° C | 46% | 1009.7 hPa | - | - | - | - |
* Rain since midnight (hover to see other rain measurements)
** Current wind speed in m/s (hover to see current wind gust speed)